Location: New Town
(33.2710°N, 90.7534°W)
Time: 02:55:25
(UTC+00:00)

Vanguard 1 - Visible Passes

Search period start: 12 May 2021 00:00
Search period end: 22 May 2021 00:00
Orbit: 649 x 3834 km, 34.2° (Epoch: 04 May)

Date Brightness Start Highest point End Pass type
(mag) Time Alt. Az. Time Alt. Az. Time Alt. Az.
18 May 11.9 09:48:20 10° SSE 09:49:08 10° SSE 09:49:56 10° SE visible
19 May 11.4 10:06:25 10° SSW 10:10:06 17° SSE 10:13:10 10° ESE visible
20 May 10.9 10:26:16 10° SSW 10:31:01 26° SSE 10:34:48 10° E visible
